Lid_Strength_Index
2 2 2 2 2 2 2 2 2 2 2 2 2 2 2 3 4 4 8 6 3 -2 -1 3 4 3 2 4 3 4 10 12 11 10 9 5 7 5 4 6 5 4 4 4 2
2 2 2 2 2 2 2 2 2 2 2 2 2 2 2 2 4 5 2 -2 -2 -2 5 5 5 5 5 5 5 7 11 10 7 7 7 6 6 6 6 6 6 5 4 3 2
2 2 2 2 2 2 2 2 2 2 2 2 2 2 2 2 4 6 -2 -2 -2 -1 5 4 5 5 6 6 6 6 9 7 6 6 5 6 6 5 7 8 6 6 5 3 3
2 3 3 3 2 2 2 2 2 2 2 2 2 2 2 3 10 3 -1 -1 -2 3 4 4 5 6 7 8 5 8 6 6 6 5 6 7 5 6 6 6 4 4 4 4 4
3 3 3 3 3 3 2 2 2 2 3 2 2 2 4 6 7 1 -1 -1 4 5 6 6 6 5 8 6 6 8 7 6 5 6 6 5 6 6 6 4 3 3 3 4 4
3 3 3 3 3 2 2 3 3 3 3 2 2 2 5 11 4 1 2 5 6 5 6 6 5 4 6 6 7 6 6 6 5 6 6 7 6 6 5 4 4 4 4 4 4
2 3 3 3 3 3 3 3 3 3 3 2 2 2 6 8 3 2 5 5 6 6 6 5 4 5 5 7 5 6 8 7 7 6 7 6 9 8 5 4 5 5 4 4 3
2 2 2 3 3 3 3 4 4 3 2 2 1 4 9 3 3 3 5 5 5 5 6 5 2 4 6 5 6 8 9 12 8 7 7 7 12 8 5 5 6 5 5 4 4
2 3 3 3 3 4 4 4 3 2 2 0 5 6 9 1 4 3 4 5 7 6 6 3 4 6 6 9 11 10 13 12 10 7 7 8 11 7 5 5 6 6 5 5 4
3 3 3 3 3 4 5 5 4 3 2 1 2 8 6 5 5 4 4 4 6 7 7 6 6 8 8 11 15 13 13 11 12 9 8 10 10 8 6 6 7 6 5 5 5
3 3 3 3 4 5 6 6 7 8 5 9 9 6 5 4 4 5 4 5 6 7 10 8 9 11 9 9 9 9 11 12 10 8 9 10 10 8 7 6 7 6 6 6 5
3 3 3 4 4 5 6 6 5 6 9 5 5 5 4 5 6 6 4 7 8 10 10 10 11 8 7 7 9 10 12 12 9 8 9 10 11 8 8 7 6 6 7 6 5
3 3 3 4 5 5 5 5 3 6 9 7 6 6 6 6 6 6 5 6 9 10 11 12 10 6 7 8 9 10 12 11 11 9 8 10 12 11 8 7 6 6 5 5 5
3 3 4 5 6 6 5 4 3 5 12 9 8 6 6 7 8 5 5 6 8 10 11 12 9 7 8 9 9 11 8 8 9 11 14 9 16 12 10 9 7 6 6 5 5
3 3 4 5 7 7 4 3 3 7 16 8 8 5 7 8 8 7 5 7 8 10 11 11 9 8 9 8 7 10 7 8 9 11 12 12 14 13 10 10 9 7 7 5 5
4 4 5 6 7 5 4 4 7 12 15 9 8 9 9 10 9 7 7 7 8 11 11 10 7 7 7 7 6 7 9 10 11 12 15 14 14 14 12 9 8 7 6 5 5
4 5 6 4 8 5 4 7 12 14 9 10 10 10 11 11 10 9 9 9 12 14 14 11 10 6 6 8 7 9 12 16 17 18 17 13 14 12 9 8 7 7 6 6 5
6 6 6 5 5 5 5 10 15 10 11 10 10 11 11 10 10 9 10 11 11 12 14 14 13 9 7 9 10 11 12 15 19 19 16 13 15 12 8 7 6 6 6 5 5
6 7 6 5 4 4 8 13 12 10 9 9 10 13 13 11 11 10 11 11 9 10 13 14 13 8 8 8 8 11 13 11 14 14 16 14 12 9 8 8 7 7 6 6 5
9 9 7 5 3 6 10 12 11 8 8 9 12 11 13 11 12 12 11 9 9 8 10 12 13 11 8 7 8 9 9 14 14 18 20 16 15 14 10 9 7 7 7 6 5
8 8 5 4 4 8 12 12 9 9 8 10 12 11 12 11 11 12 11 9 8 8 10 12 13 12 11 12 11 12 13 13 13 13 17 18 16 10 9 8 8 7 6 6 5
8 11 5 4 8 10 12 10 9 9 8 9 10 10 10 10 12 12 11 9 7 7 10 11 13 14 13 10 10 11 12 13 14 15 14 15 14 8 7 7 7 7 6 5 5
10 9 5 5 11 11 9 8 8 9 10 10 10 9 10 11 12 11 10 7 7 9 9 9 13 15 14 12 10 12 12 13 13 15 16 16 13 8 9 8 6 6 6 6 5
9 10 7 7 8 9 10 10 10 8 9 9 9 10 11 12 11 10 9 8 8 8 4 7 13 14 15 13 12 12 11 11 13 15 16 14 13 11 9 8 7 6 6 6 5
8 10 8 11 9 9 10 9 9 9 8 9 10 10 12 14 11 11 9 9 8 5 9 11 13 13 12 10 10 11 10 10 12 13 14 13 11 10 8 8 7 6 6 6 6
10 9 7 9 8 9 10 10 9 8 8 9 11 9 11 12 11 11 10 11 11 10 9 12 13 10 13 11 9 11 10 10 10 11 12 11 12 10 7 7 7 7 6 8 6
7 7 7 9 9 10 10 9 9 8 7 6 7 10 11 9 8 8 8 8 9 9 11 12 13 14 14 12 11 12 11 10 10 9 10 13 11 9 8 8 7 7 7 6 5